Wind_Speed
43 45 48 49 47 44 43 43 44 45 47 47 49 50 52 52 53 55 56 55 57 55 54 54 55 53 54 55 57 57 58 58 59
47 49 47 43 43 42 44 46 48 50 51 53 54 56 58 58 58 57 58 58 57 57 56 55 55 55 55 56 58 59 58 60 60
45 43 41 41 41 44 47 49 51 50 54 57 59 60 60 62 62 64 63 62 62 61 57 56 56 57 56 56 57 57 58 59 62
40 41 42 42 44 47 50 51 52 55 59 61 64 63 60 64 68 65 63 59 57 55 54 54 56 56 58 59 60 61 63 64 64
42 41 43 45 47 49 51 56 58 62 65 65 66 63 66 65 63 59 57 55 54 52 52 54 56 58 58 60 63 63 63 62 62
41 44 46 48 51 56 60 62 66 66 66 64 62 64 62 64 60 57 54 56 55 56 54 53 54 53 54 55 56 59 59 58 60
46 48 50 54 56 60 61 64 66 66 66 62 63 63 61 60 57 56 58 56 53 48 47 48 50 50 51 52 54 55 57 58 62
49 52 54 58 60 62 63 65 66 65 62 60 61 59 59 57 57 55 51 47 46 45 44 45 45 45 48 53 55 57 58 59 62
53 56 59 61 61 63 66 66 65 62 57 55 55 53 54 49 46 43 40 38 37 37 38 40 43 45 45 44 45 46 46 48 51
58 59 61 63 65 66 68 63 60 56 52 49 47 44 44 42 40 38 34 32 30 30 30 30 30 29 28 26 25 25 27 31 35
62 63 65 69 71 69 65 61 54 48 44 41 40 39 40 37 36 33 30 26 24 23 21 19 16 15 18 20 22 24 26 29 33
67 69 72 75 71 66 62 59 49 43 40 36 36 36 34 33 32 32 28 25 24 21 19 18 19 20 22 25 25 26 29 32 37
72 76 77 73 65 64 62 53 44 39 36 35 33 33 32 31 32 31 29 23 20 20 20 21 22 23 24 25 28 30 34 38 43
77 78 75 69 63 65 59 49 41 39 35 32 31 31 31 31 31 30 31 29 26 25 25 25 24 25 27 30 34 35 40 45 48
76 75 71 69 67 66 54 45 38 36 35 33 33 32 33 33 33 31 30 30 29 27 27 29 29 29 30 31 34 38 43 47 47
75 72 72 69 69 63 49 43 40 36 35 35 33 33 32 27 22 22 23 23 24 24 24 25 26 24 25 29 31 36 39 42 46
73 74 73 70 69 58 45 43 41 36 36 36 35 30 23 23 25 25 24 24 25 26 26 26 28 27 25 27 28 32 37 40 43
74 74 73 69 64 53 44 42 38 36 37 35 30 27 28 29 28 27 29 29 29 28 29 31 32 32 31 31 31 31 32 38 40
75 74 72 67 57 49 42 36 36 38 39 32 30 31 32 32 34 34 32 33 35 36 35 35 35 33 33 34 33 32 31 33 38
75 73 69 62 53 48 42 38 39 40 39 34 34 36 37 39 40 41 43 43 40 39 40 39 39 39 38 37 35 34 33 30 31
Wind_Direction
291 293 294 296 298 298 297 297 296 296 296 297 299 298 299 297 296 292 291 289 288 286 281 275 272 267 265 265 264 262 260 261 261
294 296 297 297 299 299 299 300 301 300 299 299 298 298 297 297 295 294 290 291 290 286 281 278 273 270 268 266 263 260 259 262 261
296 296 294 295 296 301 301 300 299 300 299 299 297 296 296 296 296 293 291 289 287 285 282 279 275 271 267 267 264 261 259 256 258
295 295 293 296 298 299 301 300 299 299 298 299 299 298 297 297 295 293 291 289 286 282 279 276 275 271 269 267 263 261 261 259 257
293 295 296 299 300 300 298 297 298 298 299 298 298 295 296 296 295 294 292 288 285 283 278 274 271 268 267 266 265 265 263 262 260
291 292 297 299 296 296 296 298 298 299 298 299 299 298 297 296 295 293 291 289 287 284 278 274 271 269 267 266 264 265 264 263 263
295 298 298 299 296 298 300 299 299 300 301 301 300 299 298 297 294 293 292 290 289 282 278 275 273 273 271 269 267 264 263 261 259
296 297 298 299 298 301 300 299 299 300 303 302 301 299 299 298 295 294 293 290 285 283 280 277 275 273 274 271 267 264 263 262 260
298 299 302 303 304 305 304 306 308 305 305 303 301 301 300 301 299 299 297 293 288 286 285 283 279 279 278 276 273 269 267 264 263
300 302 305 309 311 311 312 313 311 307 307 304 304 304 303 305 307 309 307 303 299 295 293 290 289 287 284 284 283 282 279 274 270
304 306 310 312 315 315 316 315 314 311 307 307 308 310 307 310 314 314 314 313 317 316 313 308 305 301 302 303 298 292 288 285 281
306 309 312 315 316 316 317 318 315 311 312 312 314 311 310 311 313 316 321 325 325 324 319 307 300 296 296 299 295 291 289 284 282
307 310 313 315 316 318 318 315 313 313 314 313 313 310 309 308 307 307 310 314 315 314 305 301 298 300 298 296 293 291 290 286 285
307 311 314 314 316 318 317 311 311 313 309 310 309 310 306 304 303 303 304 306 304 302 300 300 299 297 298 297 295 294 291 289 288
308 312 312 314 317 319 314 307 306 306 304 302 304 303 300 300 300 302 304 304 304 302 301 300 299 300 300 300 301 297 294 293 293
308 309 311 313 315 316 309 303 300 299 298 297 299 300 301 302 301 306 308 310 311 308 305 305 305 304 309 307 311 312 306 306 304
306 308 310 312 313 313 304 299 297 295 296 296 296 294 291 296 304 305 307 309 311 310 312 314 313 312 314 315 320 325 326 324 323
306 307 309 309 312 307 302 297 295 293 294 295 292 289 291 297 299 302 304 304 308 309 311 314 313 316 318 319 321 323 330 332 333
303 306 306 308 306 301 299 294 293 291 290 285 284 289 293 297 299 299 298 300 303 305 305 306 308 310 313 316 319 320 324 332 333
303 303 303 303 300 293 290 289 288 290 286 280 282 284 288 293 296 297 300 301 299 300 302 303 305 307 309 311 316 318 317 323 332
Height
10847 10844 10841 10838 10834 10832 10828 10825 10822 10819 10815 10811 10808 10804 10800 10796 10792 10789 10786 10783 10780 10778 10775 10775 10773 10772 10771 10770 10770 10771 10771 10772 10775
10840 10836 10833 10830 10827 10824 10821 10817 10814 10810 10806 10802 10798 10794 10789 10784 10780 10776 10772 10770 10767 10763 10761 10760 10759 10758 10758 10757 10756 10757 10759 10759 10759
10832 10829 10826 10823 10820 10817 10813 10809 10805 10800 10796 10792 10787 10782 10777 10771 10766 10762 10759 10757 10753 10749 10746 10745 10744 10743 10742 10742 10741 10742 10742 10745 10744
10825 10822 10819 10816 10813 10808 10804 10799 10794 10790 10786 10780 10774 10768 10763 10758 10752 10747 10744 10741 10738 10736 10733 10731 10729 10728 10727 10727 10727 10726 10726 10728 10730
10818 10815 10812 10808 10804 10800 10795 10790 10784 10779 10774 10768 10762 10756 10750 10744 10738 10732 10729 10725 10724 10721 10719 10717 10715 10714 10713 10712 10711 10711 10711 10712 10714
10811 10807 10804 10799 10795 10790 10785 10780 10773 10767 10761 10755 10748 10741 10735 10729 10724 10720 10715 10712 10709 10706 10704 10702 10701 10700 10700 10698 10697 10697 10697 10698 10698
10802 10798 10794 10790 10786 10780 10775 10768 10762 10756 10748 10742 10735 10728 10721 10715 10710 10706 10702 10698 10695 10692 10690 10689 10688 10687 10686 10684 10684 10683 10682 10682 10681
10792 10789 10786 10781 10776 10770 10765 10757 10750 10744 10737 10729 10722 10715 10709 10703 10698 10692 10689 10686 10682 10679 10677 10676 10674 10673 10672 10670 10668 10667 10668 10669 10669
10783 10779 10775 10771 10765 10759 10751 10744 10736 10729 10723 10717 10710 10704 10697 10692 10688 10682 10678 10675 10672 10669 10667 10665 10663 10661 10659 10656 10655 10654 10655 10655 10655
10774 10770 10766 10760 10753 10746 10738 10731 10724 10716 10711 10705 10699 10694 10688 10683 10679 10674 10670 10666 10663 10660 10658 10656 10654 10652 10650 10648 10647 10646 10646 10645 10644
10764 10759 10754 10748 10741 10733 10726 10719 10713 10706 10701 10695 10690 10685 10681 10676 10672 10669 10665 10661 10657 10654 10652 10649 10648 10647 10646 10644 10643 10641 10640 10638 10636
10752 10747 10743 10736 10730 10722 10716 10709 10703 10698 10693 10687 10682 10678 10674 10670 10667 10663 10660 10656 10653 10651 10648 10646 10645 10643 10642 10640 10637 10635 10633 10631 10628
10740 10735 10730 10725 10718 10712 10705 10700 10695 10690 10685 10681 10677 10673 10669 10666 10663 10659 10656 10653 10651 10647 10644 10641 10640 10637 10636 10633 10630 10628 10625 10621 10617
10728 10724 10717 10712 10708 10702 10696 10690 10687 10682 10678 10675 10672 10668 10665 10661 10658 10655 10652 10648 10646 10643 10639 10636 10634 10632 10629 10626 10623 10620 10616 10610 10605
10717 10712 10706 10701 10697 10692 10686 10681 10677 10675 10671 10668 10665 10662 10659 10655 10652 10649 10645 10643 10640 10637 10634 10631 10629 10627 10623 10620 10615 10610 10605 10598 10593
10706 10701 10695 10691 10686 10681 10676 10672 10669 10666 10663 10661 10658 10655 10651 10648 10645 10642 10640 10637 10635 10633 10630 10626 10621 10621 10617 10612 10608 10602 10596 10588 10580
10695 10689 10684 10679 10675 10670 10667 10663 10660 10658 10655 10653 10650 10648 10646 10644 10640 10637 10634 10632 10630 10628 10625 10621 10616 10613 10611 10605 10601 10595 10588 10579 10570
10683 10677 10672 10668 10664 10660 10657 10653 10651 10650 10647 10645 10642 10639 10637 10635 10634 10631 10628 10625 10623 10621 10619 10616 10611 10608 10605 10600 10595 10590 10584 10575 10567
10669 10665 10660 10656 10653 10649 10647 10644 10642 10641 10638 10636 10634 10632 10629 10627 10624 10622 10621 10619 10616 10613 10610 10608 10604 10601 10598 10594 10589 10585 10580 10573 10565
10657 10652 10647 10644 10641 10639 10637 10635 10633 10631 10630 10628 10626 10623 10620 10618 10615 10613 10610 10607 10606 10604 10601 10599 10596 10593 10590 10588 10584 10580 10575 10570 10564